Regional Weather Roundup
Issued by NWS

Home | Current Version | Previous Version | Text Only | Print | Product List | Glossary Off
Versions: 1 2 3 4 5 6 7 8 9 10 11 12 13 14 15 16 17 18 19 20 21 22 23 24 25 26 27 28 29 30 31 32 33 34 35 36 37 38 39 40 41 42 43 44 45 46 47 48 49 50

013
ASUS45 KBOU 180707
RWRCO

WEATHER ROUNDUP FOR COLORADO
NATIONAL WEATHER SERVICE DENVER/BOULDER CO
1200 AM MST WED JAN 18 2017

NOTE: "FAIR" INDICATES FEW OR NO CLOUDS BELOW 12000 FEET WITH NO
SIGNIFICANT WEATHER AND/OR OBSTRUCTIONS TO VISIBILITY.

COZ001>005-013-030-031-180800-
...NORTHWEST COLORADO...

CITY           SKY/WX    TMP DP  RH WIND       PRES   REMARKS
CRAIG          FOG       10   7  87 CALM      30.20S VSB 1/4
HAYDEN         FAIR       5   3  92 SE5       30.16S WCI  -4
MEEKER         FAIR      12   9  87 CALM      30.18S
MOUNT WERNER   NOT AVBL
STEAMBOAT SPGS CLOUDY     8   5  89 CALM      30.18R VSB<1/4
WALDEN           N/A    N/A N/A N/A CALM      30.15F VSB 1
$$

COZ006>008-011-180800-
...WEST CENTRAL VALLEYS...

CITY           SKY/WX    TMP DP  RH WIND       PRES   REMARKS
GRAND JUNCTION FAIR      28  27  96 E3        30.17S
MONTROSE       CLOUDY    35  31  85 CALM      30.18S
EAGLE          FAIR      14  11  87 CALM      30.21F
RIFLE          FAIR      25  21  85 CALM      30.18F
DELTA          CLOUDY    37  31  77 CALM      30.17F
NUCLA          FAIR      30  27  86 E3        30.20S
$$

COZ017>023-064>068-180800-
...SOUTHWEST COLORADO...

CITY           SKY/WX    TMP DP  RH WIND       PRES   REMARKS
DURANGO        CLOUDY    32  29  88 CALM      30.12S
CORTEZ         FAIR      28  28 100 CALM      30.14S
PAGOSA SPRINGS FAIR      32  31  96 CALM      30.13S
TELLURIDE      MOCLDY    23  19  83 E6        30.16S WCI  16
WOLF CREEK PAS   N/A     16  16 100 CALM      30.18S
$$

COZ009-010-012-014-032>034-037-058>063-180800-
...CENTRAL COLORADO...

CITY           SKY/WX    TMP DP  RH WIND       PRES   REMARKS
ASPEN          FAIR      13   9  84 S6        30.14F WCI   4
BUENA VISTA    FAIR      18  10  68 NW12      30.12S WCI   6
COPPER MTN     FAIR      28 -29   7 E7        30.14F WCI  21
BERTHOUD PASS  NOT AVBL
COTTONWOOD PAS FAIR      30   5  34 W9        30.10F WCI  22
GUNNISON       CLOUDY    22  19  89 NE5       30.18F WCI  16
KREMMLING      FOG       14  10  85 CALM      30.21F VSB 1/4
LEADVILLE      FAIR       7   2  80 NE6       30.11F WCI  -3
MONARCH PASS     N/A     16  12  86 MISG      30.23F
SALIDA         FAIR      26  20  79 W10       30.20R WCI  16
SUNLIGHT       FAIR      19  14  79 W3        30.18S
WILKERSON PASS FAIR      25  -6  26 NE6       30.14F WCI  18
$$

COZ069>075-180800-
...SAN LUIS VALLEY/SANGRE DE CRISTO MOUNTAINS...

CITY           SKY/WX    TMP DP  RH WIND       PRES   REMARKS
ALAMOSA        CLOUDY    23  23 100 CALM      30.12F FOG
LA VETA PASS   FAIR      21  19  93 NE16      30.10S WCI   7
SAGUACHE       FAIR      19  19 100 CALM      30.13F FOG
$$

COZ035-036-038>040-180800-
...NORTHERN COLORADO FRONT RANGE...

CITY           SKY/WX    TMP DP  RH WIND       PRES   REMARKS
DENVER INTL AP FAIR      22  16  78 S10       29.99F WCI  11
DMNS CITY PARK   N/A     28  20  72 SE8       30.00S WCI  20
AURORA         PTCLDY    29  21  71 S9        30.00F WCI  21
FRONT RANGE AP FAIR      27  18  69 S8        30.01S WCI  18
ERIE MUNI ARPT FAIR      16  14  93 CALM      30.00F
BOULDER MUN AP FAIR      28  21  74 SW3       30.00S
CENTENNIAL     FAIR      23  16  74 SE5       30.00F WCI  17
BROOMFIELD     FAIR      32  14  47 W6        30.00F WCI  26
FORT COLLINS   FAIR      25  21  86 CALM      30.00F
LONGMONT       FAIR      20  16  82 CALM      30.03S
$$

COZ041-046-047-076>085-087-088-180800-
...PIKES PEAK/PALMER DIVIDE AND SOUTHERN FOOTHILLS...

CITY           SKY/WX    TMP DP  RH WIND       PRES   REMARKS
COLO. SPRINGS  FAIR      25  14  63 N8        30.04F WCI  16
A. F. ACADEMY  FAIR      19  14  79 N10       30.03F WCI   8
SCHRIEVER AFB  NOT AVBL
ELLICOTT       FAIR     N/A N/A N/A N5        30.01F
FALCON         FAIR      20  10  63 NW5       30.04F WCI  14
FORT CARSON    CLEAR     28  21  74 N7        30.04F WCI  21
LIMON          FAIR      15  15 100 N3        30.02F
MONUMENT HILL  FAIR      23   3  42 S9        30.04F WCI  13
TRINIDAD       FAIR      30  25  81 W14       30.04F WCI  19
$$

COZ042>045-048>051-090-091-180800-
...NORTHEAST COLORADO...

CITY           SKY/WX    TMP DP  RH WIND       PRES   REMARKS
GREELEY ARPT   FAIR      22  20  92 S3        30.02S
AKRON          FAIR      24  21  88 W10       29.99F WCI  14
BURLINGTON     FAIR      30  28  92 W10       30.02F WCI  21
WRAY           NOT AVBL
STERLING       FAIR      25  23  93 SW9       30.00S WCI  15
HOLYOKE        FAIR      25  21  86 SW8       30.01F WCI  16
FORT MORGAN    FAIR      21  19  93 W7        30.02F WCI  12
$$

COZ086-089-092>099-180800-
...SOUTHEAST COLORADO...

CITY           SKY/WX    TMP DP  RH WIND       PRES   REMARKS
PUEBLO         FOG       26  24  92 CALM      30.04F VSB 1/4
LA JUNTA       FOG       23  20  88 W3        30.05F VSB 1/2
LAMAR          FAIR      20  17  88 SW9       30.05F WCI   9
SPRINGFIELD      N/A     32  30  92 SW9       30.05F WCI  24
$$




USA.gov is the U.S. government's official web portal to all federal, state and local government web resources and services.